Flight Track Log - Related Links

Times and Time Zones

All times are in EDT time to prevent confusion due to time zone crossing. See the SWA2166 flight status page for this flight to view local times or setup timezone preferences in your user account.


Time Position Orientation Groundspeed Altitude Reporting Facility
EDT Latitude Longitude Course Direction KTS MPH feet Rate Location/Type
Sat 06:46:41 AM 33.6497 -84.3808 67° East 436 502 2,600  Level Atlanta Center
Sat 06:47:33 AM 33.6667 -84.3333 67° East 223 257 4,300 2,034 Climbing Atlanta TRACON
Sat 06:48:39 AM 33.7167 -84.2833 40° Northeast 259 298 6,600 2,936 Climbing Atlanta TRACON
Sat 06:50:41 AM 33.8125 -84.3689 323° Northwest 236 272 13,500 2,835 Climbing Atlanta Center
Sat 06:51:41 AM 33.8081 -84.4789 267° West 266 306 15,200 2,450 Climbing Atlanta Center
Sat 06:52:41 AM 33.8117 -84.6064 272° West 312 359 18,400 2,950 Climbing Atlanta Center
Sat 06:53:41 AM 33.8111 -84.7214 270° West 341 392 21,100 2,450 Climbing Atlanta Center
Sat 06:54:41 AM 33.8083 -84.8514 269° West 368 423 23,300 2,200 Climbing Atlanta Center
Sat 06:55:41 AM 33.7969 -84.9786 264° West 394 453 25,500 2,000 Climbing Atlanta Center
Sat 06:56:41 AM 33.7814 -85.1111 262° West 407 468 27,300 1,750 Climbing Atlanta Center
Sat 06:57:41 AM 33.7736 -85.2508 266° West 414 476 29,000 1,750 Climbing Atlanta Center
Sat 06:58:41 AM 33.7953 -85.3886 281° West 419 482 30,800 1,700 Climbing Atlanta Center
Sat 06:59:41 AM 33.8167 -85.5114 282° West 426 490 32,400 1,750 Climbing Atlanta Center
Sat 07:00:41 AM 33.8400 -85.6469 282° West 426 490 34,300 1,950 Climbing Atlanta Center
Sat 07:01:41 AM 33.8781 -85.7753 290° West 416 479 36,300 1,750 Climbing Atlanta Center
Sat 07:02:41 AM 33.9161 -85.8911 292° West 392 451 37,800 850 Climbing Atlanta Center
Sat 07:03:41 AM 33.9539 -86.0122 291° West 387 445 38,000 100 Climbing Atlanta Center
Sat 07:04:41 AM 33.9936 -86.1358 291° West 387 445 38,000  Level Atlanta Center
Sat 07:05:41 AM 34.0267 -86.2594 288° West 392 451 38,000  Level Atlanta Center
Sat 07:06:41 AM 34.0619 -86.3883 288° West 392 451 38,000  Level Atlanta Center
Sat 07:09:09 AM 34.1525 -86.7128 289° West 399 459 38,000  Level Memphis Center
Sat 07:10:09 AM 34.1875 -86.8394 289° West 399 459 38,000  Level Memphis Center
Sat 07:11:09 AM 34.2225 -86.9736 288° West 408 470 38,000  Level Memphis Center
Sat 07:12:09 AM 34.2592 -87.1003 289° West 413 475 38,000  Level Memphis Center
Sat 07:13:09 AM 34.2892 -87.2047 289° West 413 475 38,000  Level Memphis Center
Sat 07:14:09 AM 34.3281 -87.3392 289° West 395 455 38,000  Level Memphis Center
Sat 07:15:09 AM 34.3667 -87.4786 289° West 395 455 38,000  Level Memphis Center
Sat 07:16:09 AM 34.3989 -87.6033 287° West 395 455 38,000  Level Memphis Center
Sat 07:17:09 AM 34.4306 -87.7283 287° West 395 455 38,000  Level Memphis Center
Sat 07:18:09 AM 34.4667 -87.8531 289° West 395 455 38,000  Level Memphis Center
Sat 07:19:09 AM 34.4983 -87.9808 287° West 395 455 38,000  Level Memphis Center
Sat 07:20:09 AM 34.5342 -88.1083 289° West 395 455 38,000  Level Memphis Center
Sat 07:21:09 AM 34.5656 -88.2311 287° West 401 461 38,000  Level Memphis Center
Sat 07:22:09 AM 34.5989 -88.3564 288° West 401 461 38,000  Level Memphis Center
Sat 07:23:09 AM 34.6322 -88.4842 288° West 396 456 38,000  Level Memphis Center
Sat 07:24:09 AM 34.6675 -88.6147 288° West 376 433 38,000  Level Memphis Center
Sat 07:25:09 AM 34.7003 -88.7353 288° West 376 433 38,000  Level Memphis Center
Sat 07:26:09 AM 34.7247 -88.8411 286° West 376 433 38,000  Level Memphis Center
Sat 07:27:09 AM 34.7553 -88.9567 288° West 371 427 38,000  Level Memphis Center
Sat 07:28:09 AM 34.7858 -89.0750 287° West 371 427 38,000  Level Memphis Center
Sat 07:29:09 AM 34.8183 -89.1936 288° West 371 427 38,000  Level Memphis Center
Sat 07:30:09 AM 34.8486 -89.3119 287° West 371 427 38,000  Level Memphis Center
Sat 07:31:09 AM 34.8786 -89.4331 287° West 371 427 38,000  Level Memphis Center
Sat 07:32:09 AM 34.9108 -89.5492 289° West 371 427 38,000  Level Memphis Center
Sat 07:33:09 AM 34.9408 -89.6731 286° West 371 427 38,000  Level Memphis Center
Sat 07:34:09 AM 34.9664 -89.8047 283° West 371 427 38,000  Level Memphis Center
Sat 07:35:09 AM 35.0044 -89.9236 291° West 402 463 38,000  Level Memphis Center
Sat 07:36:09 AM 35.0361 -90.0450 288° West 388 447 38,000  Level Memphis Center
Sat 07:37:09 AM 35.0739 -90.1617 292° West 382 440 38,000  Level Memphis Center
Sat 07:38:09 AM 35.1117 -90.2833 291° West 382 440 38,000  Level Memphis Center
Sat 07:39:09 AM 35.1492 -90.4053 291° West 387 445 38,000  Level Memphis Center
Sat 07:40:09 AM 35.1886 -90.5297 291° West 387 445 38,000  Level Memphis Center
Sat 07:41:09 AM 35.2322 -90.6672 291° West 392 451 38,000  Level Memphis Center
Sat 07:42:09 AM 35.2717 -90.7944 291° West 392 451 38,000  Level Memphis Center
Sat 07:43:09 AM 35.3086 -90.9219 290° West 397 457 38,000  Level Memphis Center
Sat 07:44:09 AM 35.3497 -91.0469 292° West 397 457 38,000  Level Memphis Center
Sat 07:45:09 AM 35.3844 -91.1669 290° West 387 445 38,000  Level Memphis Center
Sat 07:46:09 AM 35.4253 -91.2947 291° West 394 453 38,000  Level Memphis Center
Sat 07:47:09 AM 35.4558 -91.3919 291° West 399 459 38,000  Level Memphis Center
Sat 07:48:09 AM 35.5025 -91.5456 291° West 399 459 38,000  Level Memphis Center
Sat 07:49:09 AM 35.5408 -91.6761 290° West 399 459 38,000  Level Memphis Center
Sat 07:50:09 AM 35.5811 -91.8044 291° West 404 465 38,000  Level Memphis Center
Sat 07:51:09 AM 35.6169 -91.9353 289° West 409 471 38,000  Level Memphis Center
Sat 07:52:09 AM 35.6569 -92.0664 291° West 409 471 38,000  Level Memphis Center
Sat 07:53:09 AM 35.6947 -92.1950 290° West 409 471 38,000  Level Memphis Center
Sat 07:54:09 AM 35.7306 -92.3133 290° West 409 471 38,000  Level Memphis Center
Sat 07:55:09 AM 35.7681 -92.4447 289° West 409 471 38,000  Level Memphis Center
Sat 07:56:09 AM 35.8053 -92.5736 290° West 409 471 38,000  Level Memphis Center
Sat 07:57:09 AM 35.8425 -92.7028 290° West 404 465 38,000  Level Memphis Center
Sat 07:58:09 AM 35.8797 -92.8292 290° West 404 465 38,000  Level Memphis Center
Sat 07:59:09 AM 35.9167 -92.9586 289° West 404 465 38,000  Level Memphis Center
Sat 08:00:09 AM 35.9536 -93.0853 290° West 404 465 38,000  Level Memphis Center
Sat 08:01:09 AM 35.9906 -93.2122 290° West 399 459 38,000  Level Memphis Center
Sat 08:02:09 AM 36.0269 -93.3419 289° West 399 459 38,000  Level Memphis Center
Sat 08:03:09 AM 36.0617 -93.4664 289° West 399 459 38,000  Level Memphis Center
Sat 08:04:09 AM 36.0978 -93.5961 289° West 399 459 38,000  Level Memphis Center
Sat 08:05:09 AM 36.1339 -93.7261 289° West 399 459 38,000  Level Memphis Center
Sat 08:06:09 AM 36.1722 -93.8536 290° West 399 459 38,000  Level Memphis Center
Sat 08:08:16 AM 36.2550 -94.1408 290° West 400 460 38,000  Level Kansas City Center
Sat 08:09:16 AM 36.3100 -94.2617 299° West 402 463 38,000  Level Kansas City Center
Sat 08:10:17 AM 36.3650 -94.3814 300° West 400 460 38,000  Level Kansas City Center
Sat 08:11:18 AM 36.4197 -94.5017 300° West 401 461 38,000  Level Kansas City Center
Sat 08:12:19 AM 36.4731 -94.6211 299° West 398 458 38,000  Level Kansas City Center
Sat 08:13:19 AM 36.5275 -94.7406 300° West 398 458 38,000  Level Kansas City Center
Sat 08:14:20 AM 36.5797 -94.8592 299° West 394 453 38,000  Level Kansas City Center
Sat 08:15:21 AM 36.6322 -94.9775 299° West 393 452 38,000  Level Kansas City Center
Sat 08:16:22 AM 36.6856 -95.0958 299° West 394 453 38,000  Level Kansas City Center
Sat 08:17:23 AM 36.7378 -95.2167 298° West 397 457 38,000  Level Kansas City Center
Sat 08:18:24 AM 36.7936 -95.3400 300° West 405 466 38,000  Level Kansas City Center
Sat 08:19:25 AM 36.8467 -95.4633 298° West 407 468 38,000  Level Kansas City Center
Sat 08:20:25 AM 36.9122 -95.6142 299° West 411 473 38,000  Level Kansas City Center
Sat 08:21:26 AM 36.9661 -95.7375 299° West 407 468 38,000  Level Kansas City Center
Sat 08:22:27 AM 37.0200 -95.8636 298° West 410 472 38,000  Level Kansas City Center
Sat 08:23:28 AM 37.0733 -95.9889 298° West 408 470 38,000  Level Kansas City Center
Sat 08:24:29 AM 37.1292 -96.1169 299° West 415 478 38,000  Level Kansas City Center
Sat 08:25:30 AM 37.1836 -96.2464 298° West 417 480 38,000  Level Kansas City Center
Sat 08:26:31 AM 37.2386 -96.3739 298° West 415 478 38,000  Level Kansas City Center
Sat 08:27:32 AM 37.2939 -96.5050 298° West 416 479 38,000  Level Kansas City Center
Sat 08:28:33 AM 37.3486 -96.6347 298° West 418 481 38,000  Level Kansas City Center
Sat 08:29:34 AM 37.4039 -96.7653 298° West 421 484 38,000  Level Kansas City Center
Sat 08:30:35 AM 37.4603 -96.8956 299° West 425 489 38,000  Level Kansas City Center
Sat 08:31:36 AM 37.5150 -97.0258 298° West 422 486 38,000  Level Kansas City Center
Sat 08:32:37 AM 37.5694 -97.1572 298° West 421 484 38,000  Level Kansas City Center
Sat 08:33:38 AM 37.6236 -97.2864 298° West 418 481 38,000  Level Kansas City Center
Sat 08:34:39 AM 37.6767 -97.4164 297° West 418 481 38,000  Level Kansas City Center
Sat 08:35:40 AM 37.7308 -97.5511 297° West 415 478 38,000  Level Kansas City Center
Sat 08:36:41 AM 37.7528 -97.6917 281° West 412 474 38,000  Level Kansas City Center
Sat 08:37:42 AM 37.7617 -97.8347 275° West 409 471 38,000  Level Kansas City Center
Sat 08:38:43 AM 37.7728 -98.0072 275° West 409 471 38,000  Level Kansas City Center
Sat 08:39:44 AM 37.7836 -98.1553 275° West 412 474 38,000  Level Kansas City Center
Sat 08:40:45 AM 37.7911 -98.2708 275° West 410 472 38,000  Level Kansas City Center
Sat 08:41:46 AM 37.8003 -98.4156 275° West 412 474 38,000  Level Kansas City Center
Sat 08:42:47 AM 37.8100 -98.5917 274° West 416 479 38,000  Level Kansas City Center
Sat 08:43:48 AM 37.8178 -98.7397 274° West 420 483 38,000  Level Kansas City Center
Sat 08:44:50 AM 37.8269 -98.8889 274° West 423 487 38,000  Level Kansas City Center
Sat 08:45:51 AM 37.8364 -99.0389 275° West 427 491 38,000  Level Kansas City Center
Sat 08:46:52 AM 37.8453 -99.1900 274° West 430 495 38,000  Level Kansas City Center
Sat 08:47:53 AM 37.8533 -99.3408 274° West 430 495 38,000  Level Kansas City Center
Sat 08:48:54 AM 37.8617 -99.4894 274° West 428 493 38,000  Level Kansas City Center
Sat 08:49:55 AM 37.8700 -99.6561 274° West 426 490 38,000  Level Kansas City Center
Sat 08:50:55 AM 37.8775 -99.8011 274° West 430 495 38,000  Level Kansas City Center
Sat 08:51:56 AM 37.8844 -99.9444 274° West 429 494 38,000  Level Kansas City Center
Sat 08:52:57 AM 37.8922 -100.1122 273° West 429 494 38,000  Level Kansas City Center
Sat 08:53:58 AM 37.8989 -100.2569 273° West 430 495 38,000  Level Kansas City Center
Sat 08:54:59 AM 37.9069 -100.4233 274° West 429 494 38,000  Level Kansas City Center
Sat 08:56:00 AM 37.9131 -100.5664 273° West 428 493 38,000  Level Kansas City Center
Sat 08:57:01 AM 37.9192 -100.7097 273° West 429 494 38,000  Level Kansas City Center
Sat 08:58:02 AM 37.9714 -100.8614 294° West 425 489 38,000  Level Kansas City Center
Sat 08:58:33 AM 37.9964 -100.9253 296° West 426 490 38,000  Level Denver Center
Sat 08:59:34 AM 38.0547 -101.0483 301° West 428 493 38,000  Level Denver Center
Sat 09:00:34 AM 38.1239 -101.1900 302° West 425 489 38,000  Level Denver Center
Sat 09:01:35 AM 38.1817 -101.3122 301° West 424 488 38,000  Level Denver Center
Sat 09:02:36 AM 38.2414 -101.4339 302° West 425 489 38,000  Level Denver Center
Sat 09:03:36 AM 38.3094 -101.5764 301° West 423 487 38,000  Level Denver Center
Sat 09:04:37 AM 38.3678 -101.6986 301° West 424 488 38,000  Level Denver Center
Sat 09:05:37 AM 38.4267 -101.8225 301° West 425 489 38,000  Level Denver Center
Sat 09:06:38 AM 38.4942 -101.9653 301° West 422 486 38,000  Level Denver Center
Sat 09:07:39 AM 38.5519 -102.0869 301° West 420 483 38,000  Level Denver Center
Sat 09:08:39 AM 38.6086 -102.2108 300° West 421 484 38,000 -347 Level Denver Center
Sat 09:09:40 AM 38.6758 -102.3553 301° West 422 486 37,300 -843 Descending Denver Center
Sat 09:10:40 AM 38.7333 -102.4783 301° West 422 486 36,300 -942 Descending Denver Center
Sat 09:11:41 AM 38.7914 -102.6042 301° West 427 491 35,400 -934 Descending Denver Center
Sat 09:12:42 AM 38.8600 -102.7531 301° West 434 499 34,400 -694 Descending Denver Center
Sat 09:13:42 AM 38.9194 -102.8797 301° West 437 503 34,000 -198 Descending Denver Center
Sat 09:14:43 AM 38.9803 -103.0164 300° West 437 503 34,000  Level Denver Center
Sat 09:15:44 AM 39.0425 -103.1514 301° West 437 503 34,000 -1,190 Level Denver Center
Sat 09:16:44 AM 39.1056 -103.2875 301° West 438 504 31,600 -2,331 Descending Denver Center
Sat 09:17:45 AM 39.1653 -103.4222 300° West 432 497 29,300 -2,311 Descending Denver Center
Sat 09:18:46 AM 39.2256 -103.5544 301° West 426 490 26,900 -2,281 Descending Denver Center
Sat 09:19:46 AM 39.2839 -103.6836 300° West 416 479 24,700 -2,182 Descending Denver Center
Sat 09:20:47 AM 39.3375 -103.8053 300° West 393 452 22,500 -1,672 Descending Denver Center
Sat 09:21:48 AM 39.3906 -103.9267 300° West 371 427 21,300 -1,289 Descending Denver Center
Sat 09:22:48 AM 39.4467 -104.0219 307° West 329 379 19,900 -1,488 Descending Denver Center
Sat 09:23:49 AM 39.5008 -104.1108 308° West 314 361 18,300 -1,426 Descending Denver Center
Sat 09:24:50 AM 39.5533 -104.1997 307° West 310 357 17,000 -645 Descending Denver Center
Sat 09:25:50 AM 39.6078 -104.2892 308° West 314 361 17,000 -545 Level Denver Center
Sat 09:26:51 AM 39.6589 -104.3781 307° West 306 352 15,900 -1,328 Descending Denver Center
Sat 09:27:52 AM 39.7106 -104.4628 308° West 299 344 14,300 -1,587 Descending Denver Center
Sat 09:28:52 AM 39.7767 -104.5236 325° Northwest 285 328 12,700 -1,388 Descending Denver Center
Sat 09:29:53 AM 39.8533 -104.5222 North 278 320 11,500 -900 Descending Denver Center
Sat 09:30:32 AM 39.9000 -104.5167 North 254 292 11,200 -645 Descending Denver TRACON
Sat 09:31:26 AM 39.9500 -104.5167 360° North 230 265 10,500 -1,143 Descending Denver TRACON
Sat 09:32:38 AM 40.0000 -104.5667 323° Northwest 214 246 8,800 -1,333 Descending Denver TRACON
Sat 09:33:32 AM 40.0000 -104.6333 270° West 214 246 7,700 -1,154 Descending Denver TRACON
Sat 09:33:56 AM 39.9917 -104.6606 248° West 198 228 7,300 -1,000 Descending Denver Center
Sat 09:34:56 AM 39.9528 -104.6861 207° Southwest 169 194 6,300 -843 Descending Denver Center
Sat 09:35:57 AM 39.9078 -104.6867 181° South 162 186 5,600 -492 Descending Denver Center
Sat 09:36:58 AM 39.8772 -104.6878 182° South 131 151 5,300 -295 Descending Denver Center
Sat 09:38:00 AM 39.8617 -104.6732 North  Level Estimated

Login

Don't have an account? Register now (free) for customized features, flight alerts, and more!